• In Portugal
  • List of Countries
  • For 7 days
  • Water Temperature
  • Satellite Maps
  • Weather Map
  • Weather Widgets
  • user-avatar
    Login

    Hourly Weather Maan

    Today, 19 September, Tuesday

    Time Temperature Precipitation Wind Pressure Humidity
    00:00 +20°C° 0 mm 2 mps 636 mmHg 49%
    01:00 +21°C° 0 mm 1 mps 636 mmHg 52%
    02:00 +19°C° 0 mm 2 mps 636 mmHg 56%
    03:00 +20°C° 0 mm 1 mps 636 mmHg 58%
    04:00 +19°C° 0 mm 1 mps 636 mmHg 60%
    05:00 +19°C° 0 mm 1 mps 636 mmHg 62%
    06:00 +20°C° 0 mm 1 mps 636 mmHg 57%
    07:00 +21°C° 0 mm 1 mps 637 mmHg 51%
    08:00 +22°C° 0 mm 1 mps 637 mmHg 46%
    09:00 +24°C° 0 mm 1 mps 638 mmHg 39%
    10:00 +25°C° 0 mm 2 mps 638 mmHg 33%
    11:00 +26°C° 0 mm 2 mps 638 mmHg 27%
    12:00 +28°C° 0 mm 3 mps 638 mmHg 24%
    13:00 +29°C° 0 mm 3 mps 638 mmHg 21%
    14:00 +30°C° 0 mm 4 mps 638 mmHg 18%
    15:00 +29°C° 0 mm 4 mps 638 mmHg 20%
    16:00 +28°C° 0 mm 4 mps 638 mmHg 21%
    17:00 +28°C° 0 mm 4 mps 638 mmHg 23%
    18:00 +27°C° 0 mm 4 mps 638 mmHg 26%
    19:00 +25°C° 0 mm 3 mps 638 mmHg 28%
    20:00 +24°C° 0 mm 3 mps 638 mmHg 31%
    21:00 +24°C° 0 mm 3 mps 638 mmHg 36%
    22:00 +23°C° 0 mm 2 mps 638 mmHg 40%
    23:00 +21°C° 0 mm 2 mps 638 mmHg 44%

    Tomorrow, 20 September, Wednesday

    Time Temperature Precipitation Wind Pressure Humidity
    00:00 +20°C° 0 mm 2 mps 637 mmHg 47%
    01:00 +20°C° 0 mm 2 mps 637 mmHg 50%
    02:00 +20°C° 0 mm 1 mps 637 mmHg 53%
    03:00 +20°C° 0 mm 1 mps 637 mmHg 54%
    04:00 +19°C° 0 mm 1 mps 637 mmHg 55%
    05:00 +19°C° 0 mm 1 mps 637 mmHg 57%
    06:00 +20°C° 0 mm 1 mps 637 mmHg 53%
    07:00 +21°C° 0 mm 1 mps 638 mmHg 50%
    08:00 +21°C° 0 mm 1 mps 638 mmHg 47%
    09:00 +23°C° 0 mm 1 mps 638 mmHg 41%
    10:00 +24°C° 0 mm 2 mps 639 mmHg 35%
    11:00 +26°C° 0 mm 2 mps 639 mmHg 29%
    12:00 +26°C° 0 mm 3 mps 639 mmHg 26%
    13:00 +27°C° 0 mm 3 mps 639 mmHg 24%
    14:00 +28°C° 0 mm 4 mps 639 mmHg 21%
    15:00 +27°C° 0 mm 4 mps 639 mmHg 21%
    16:00 +27°C° 0 mm 5 mps 638 mmHg 21%
    17:00 +26°C° 0 mm 5 mps 638 mmHg 22%
    18:00 +25°C° 0 mm 5 mps 638 mmHg 25%
    19:00 +23°C° 0 mm 4 mps 638 mmHg 28%
    20:00 +21°C° 0 mm 4 mps 638 mmHg 31%
    21:00 +21°C° 0 mm 3 mps 638 mmHg 33%
    22:00 +20°C° 0 mm 3 mps 638 mmHg 36%
    23:00 +19°C° 0 mm 3 mps 638 mmHg 38%

    Day after tomorrow, 21 September, Thursday

    Time Temperature Precipitation Wind Pressure Humidity
    00:00 +19°C° 0 mm 2 mps 637 mmHg 38%
    01:00 +18°C° 0 mm 2 mps 637 mmHg 37%
    02:00 +18°C° 0 mm 1 mps 637 mmHg 36%
    03:00 +18°C° 0 mm 1 mps 637 mmHg 36%
    04:00 +18°C° 0 mm 1 mps 637 mmHg 36%
    05:00 +16°C° 0 mm 1 mps 637 mmHg 36%
    06:00 +19°C° 0 mm 1 mps 637 mmHg 33%
    07:00 +20°C° 0 mm 1 mps 638 mmHg 30%
    08:00 +22°C° 0 mm 1 mps 639 mmHg 27%
    09:00 +23°C° 0 mm 2 mps 639 mmHg 24%
    10:00 +25°C° 0 mm 2 mps 640 mmHg 21%
    11:00 +27°C° 0 mm 3 mps 640 mmHg 18%
    12:00 +27°C° 0 mm 3 mps 640 mmHg 17%
    13:00 +28°C° 0 mm 4 mps 639 mmHg 16%
    14:00 +29°C° 0 mm 4 mps 639 mmHg 15%
    15:00 +28°C° 0 mm 4 mps 639 mmHg 16%
    16:00 +28°C° 0 mm 4 mps 639 mmHg 17%
    17:00 +27°C° 0 mm 5 mps 638 mmHg 18%
    18:00 +26°C° 0 mm 4 mps 638 mmHg 22%
    19:00 +25°C° 0 mm 3 mps 639 mmHg 25%
    20:00 +22°C° 0 mm 3 mps 639 mmHg 29%
    21:00 +22°C° 0 mm 3 mps 638 mmHg 33%
    22:00 +21°C° 0 mm 3 mps 638 mmHg 37%
    23:00 +20°C° 0 mm 2 mps 638 mmHg 41%

    22 September, Friday

    Time Temperature Precipitation Wind Pressure Humidity
    00:00 +20°C° 0 mm 2 mps 638 mmHg 43%
    01:00 +19°C° 0 mm 2 mps 637 mmHg 46%
    02:00 +19°C° 0 mm 2 mps 637 mmHg 48%
    03:00 +18°C° 0 mm 2 mps 637 mmHg 49%
    04:00 +18°C° 0 mm 2 mps 637 mmHg 50%
    05:00 +17°C° 0 mm 2 mps 637 mmHg 52%
    06:00 +19°C° 0 mm 2 mps 638 mmHg 48%
    07:00 +20°C° 0 mm 3 mps 639 mmHg 44%
    08:00 +21°C° 0 mm 3 mps 639 mmHg 40%
    09:00 +24°C° 0 mm 3 mps 640 mmHg 35%
    10:00 +26°C° 0 mm 4 mps 640 mmHg 30%
    11:00 +27°C° 0 mm 4 mps 640 mmHg 26%
    12:00 +28°C° 0 mm 4 mps 640 mmHg 24%
    13:00 +29°C° 0 mm 5 mps 640 mmHg 23%
    14:00 +29°C° 0 mm 5 mps 639 mmHg 21%
    15:00 +28°C° 0 mm 5 mps 639 mmHg 24%
    16:00 +28°C° 0 mm 5 mps 639 mmHg 26%
    17:00 +27°C° 0 mm 6 mps 639 mmHg 28%
    18:00 +26°C° 0 mm 5 mps 639 mmHg 35%
    19:00 +23°C° 0 mm 5 mps 639 mmHg 42%
    20:00 +22°C° 0 mm 4 mps 639 mmHg 48%
    21:00 +21°C° 0 mm 4 mps 639 mmHg 52%
    22:00 +20°C° 0 mm 3 mps 639 mmHg 56%
    23:00 +20°C° 0 mm 3 mps 638 mmHg 60%

    23 September, Saturday

    Time Temperature Precipitation Wind Pressure Humidity
    00:00 +19°C° 0 mm 3 mps 638 mmHg 62%
    01:00 +19°C° 0 mm 3 mps 638 mmHg 64%
    02:00 +18°C° 0 mm 3 mps 637 mmHg 65%
    03:00 +18°C° 0 mm 2 mps 637 mmHg 66%
    04:00 +18°C° 0 mm 2 mps 637 mmHg 66%
    05:00 +17°C° 0 mm 2 mps 637 mmHg 67%
    06:00 +18°C° 0 mm 2 mps 638 mmHg 60%
    07:00 +19°C° 0 mm 3 mps 639 mmHg 53%
    08:00 +20°C° 0 mm 3 mps 639 mmHg 46%
    09:00 +22°C° 0 mm 3 mps 639 mmHg 40%
    10:00 +25°C° 0 mm 4 mps 640 mmHg 34%
    11:00 +26°C° 0 mm 4 mps 640 mmHg 28%
    12:00 +27°C° 0 mm 4 mps 640 mmHg 26%
    13:00 +28°C° 0 mm 4 mps 639 mmHg 24%
    14:00 +29°C° 0 mm 4 mps 639 mmHg 23%
    15:00 +28°C° 0 mm 5 mps 639 mmHg 25%
    16:00 +28°C° 0 mm 5 mps 638 mmHg 27%
    17:00 +27°C° 0 mm 6 mps 638 mmHg 29%
    18:00 +24°C° 0 mm 6 mps 638 mmHg 35%
    19:00 +23°C° 0 mm 5 mps 638 mmHg 41%
    20:00 +21°C° 0 mm 5 mps 638 mmHg 47%
    21:00 +20°C° 0 mm 4 mps 637 mmHg 51%
    22:00 +20°C° 0 mm 4 mps 637 mmHg 55%
    23:00 +19°C° 0 mm 3 mps 637 mmHg 59%

    24 September, Sunday

    Time Temperature Precipitation Wind Pressure Humidity
    00:00 +18°C° 0 mm 3 mps 637 mmHg 61%
    01:00 +18°C° 0 mm 3 mps 636 mmHg 64%
    02:00 +17°C° 0 mm 3 mps 636 mmHg 66%
    03:00 +17°C° 0 mm 3 mps 636 mmHg 67%
    04:00 +17°C° 0 mm 2 mps 636 mmHg 68%
    05:00 +16°C° 0 mm 2 mps 636 mmHg 69%
    06:00 +17°C° 0 mm 2 mps 637 mmHg 63%
    07:00 +18°C° 0 mm 2 mps 637 mmHg 58%
    08:00 +19°C° 0 mm 3 mps 638 mmHg 53%
    09:00 +21°C° 0 mm 3 mps 638 mmHg 47%
    10:00 +23°C° 0 mm 2 mps 638 mmHg 41%
    11:00 +25°C° 0 mm 2 mps 638 mmHg 35%
    12:00 +26°C° 0 mm 2 mps 638 mmHg 33%
    13:00 +27°C° 0 mm 3 mps 638 mmHg 31%
    14:00 +28°C° 0 mm 3 mps 638 mmHg 28%
    15:00 +27°C° 0 mm 3 mps 638 mmHg 30%
    16:00 +27°C° 0 mm 4 mps 638 mmHg 31%
    17:00 +26°C° 0 mm 4 mps 638 mmHg 32%
    18:00 +25°C° 0 mm 4 mps 638 mmHg 38%
    19:00 +22°C° 0 mm 4 mps 638 mmHg 44%
    20:00 +21°C° 0 mm 4 mps 637 mmHg 49%
    21:00 +20°C° 0 mm 3 mps 637 mmHg 52%
    22:00 +20°C° 0 mm 3 mps 637 mmHg 56%
    23:00 +19°C° 0 mm 2 mps 637 mmHg 59%
    Show more